Starlink 3339

operational
NORAD ID: 50820 Int'l Des: 2022-001 Owner: SPXS Country: US Constellation: starlink
LEOCIRCULAR

About Starlink 3339

Description loading...

Live Position

Loading 3D Globe...

Upcoming Passes

Altitude History

Altitude vs Time

uPlot chart will show altitude changes over time

Two-Line Element Set

1 50820U 22001T 25347.30727737 -.00000106 00000-0 11461-4 0 9992
2 50820 53.2170 196.9058 0001444 88.3390 271.7767 15.08837238217368
Epoch: Dec 13, 2025 • Age: 16 hours

Current Status

Altitude 540.6 km
Velocity 7.59 km/s
Sub-Earth Point 0.61°N, 122.36°E
Launch Date Jan 6, 2022
Age 3.9 years
Type internet

Technical Details

Classification Payload
Mass 297.00 kg
Dry Mass 275.00 kg
Total Mass 297.00 kg
Length 0.20 m
Diameter 2.80 m
Span 9.00 m
Shape Box + pan
Manufacturer SPXS
Bus Type Starlink
Phase Status In Orbit
Owner/State SPXS/US

Large Constellations

Loading constellations...